Location: Home
(42.5358°N, 72.7383°W)
Time: 03:58:31
(UTC-04:00)

Vanguard 1 - Pass Details

Date: 27 May 2022
Orbit: 649 x 3832 km, 34.2° (Epoch: 24 June)

Event Time Altitude Azimuth Distance (km) Brightness Sun altitude
Exits shadow 03:30:10 10° 252° (WSW) 5,066 13.2 -16.0°
Reaches altitude 10° 03:30:16 10° 252° (WSW) 5,045 13.2 -16.0°
Maximum altitude 03:46:23 67° 174° (S) 3,589 12.7 -14.1°
Drops below altitude 10° 04:09:37 10° 99° (E) 6,904 14.9 -11.1°
Sets 04:14:50 0° 97° (E) 7,817 15.3 -10.4°
